Theta_e
336 337 333 336 332 333 333 331 331 326 328 333 333 345 348 346 344 348 346 336 330 325 323 324 325 327 328 329 329 330 331 332 334 335 336 338 339 339
341 339 337 338 337 338 337 340 340 335 330 334 336 344 347 346 347 348 347 333 328 325 323 322 322 323 324 324 325 325 327 328 328 329 331 332 334 335
341 340 339 340 337 339 343 343 338 336 331 334 340 345 340 341 345 345 341 343 342 323 324 322 320 320 321 321 321 321 323 325 325 326 326 327 329 331
333 335 333 333 335 339 337 338 339 338 335 328 331 337 335 337 336 340 341 340 342 329 322 320 318 317 316 315 315 315 316 317 319 321 323 323 326 329
326 324 324 327 330 332 334 335 339 340 338 329 325 331 332 334 335 336 336 338 340 328 320 318 316 316 315 314 312 311 310 309 309 312 314 318 322 324
320 319 319 320 322 326 329 331 332 333 337 336 331 327 330 337 335 333 333 336 337 336 330 326 321 318 316 315 315 314 310 307 306 307 308 309 310 315
320 318 320 318 317 317 318 322 326 326 330 334 332 325 326 331 328 335 333 337 337 339 338 337 334 334 332 318 322 318 312 309 307 306 306 305 305 307
319 318 319 317 315 311 312 313 319 327 327 332 334 326 326 328 331 331 332 332 331 338 336 335 334 335 336 335 318 313 311 309 308 307 306 305 305 305
320 319 317 314 315 317 313 312 312 309 313 326 329 331 334 336 335 331 333 335 333 334 335 333 331 331 335 334 315 309 308 307 307 306 306 305 305 303
320 319 319 318 318 317 318 319 321 322 327 329 327 331 337 344 341 338 338 336 336 335 336 329 332 330 336 336 313 308 306 305 305 305 305 305 303 302
319 319 318 318 308 302 316 317 319 321 320 310 308 309 306 307 324 333 331 330 330 330 330 333 328 331 333 332 328 308 305 304 303 303 304 303 302 301
318 318 305 310 302 299 314 316 316 319 326 326 326 318 309 317 307 335 334 330 332 325 329 329 328 329 326 327 325 325 325 306 303 302 302 302 301 323
314 314 316 301 299 297 297 313 315 319 318 322 323 326 325 326 326 330 337 338 333 332 330 330 327 328 326 324 324 324 326 323 326 321 301 301 300 308
314 315 316 301 297 296 299 300 298 301 313 317 322 323 324 324 326 331 336 338 339 336 334 335 332 328 324 319 322 321 324 325 326 327 325 306 300 299
315 310 302 297 294 298 297 296 296 315 317 321 321 323 326 329 330 331 332 333 335 334 334 333 333 327 322 324 318 319 320 322 325 325 324 325 325 324
307 311 307 303 299 304 306 312 317 318 320 322 322 325 326 324 326 326 326 327 327 326 328 332 329 325 324 327 327 325 327 324 327 327 324 326 326 325
309 313 313 313 314 316 317 315 318 318 322 322 321 321 323 324 323 326 324 327 326 325 325 326 329 331 320 323 323 320 322 323 325 323 321 321 323 321
308 311 311 313 314 314 317 316 317 317 322 322 322 321 320 322 324 326 328 327 324 326 326 327 326 323 321 311 308 321 321 324 321 322 322 321 317 306
309 310 311 313 314 315 317 317 318 321 322 321 321 323 323 324 321 325 325 326 325 325 325 326 323 322 319 316 314 299 318 323 326 324 325 323 306 302
308 308 310 314 315 316 319 317 320 322 321 321 322 323 324 323 322 320 322 324 322 318 320 320 321 322 320 321 313 307 293 320 322 321 320 307 303 296
306 309 310 314 315 318 321 321 321 322 321 321 322 325 324 322 320 320 318 304 311 320 322 323 322 296 326 321 310 305 297 294 301 307 311 313 307 305
309 309 312 314 317 318 321 321 321 320 321 322 325 325 324 323 320 320 323 320 323 324 324 317 318 321 323 321 309 305 300 296 294 293 294 298 306 305
309 312 314 316 318 320 322 320 322 321 323 327 326 325 325 324 324 325 324 325 324 322 322 317 316 314 311 307 302 303 303 300 299 297 294 292 293 293
Wind_Speed
9 9 8 6 5 6 10 12 15 16 12 9 7 6 4 6 9 7 8 9 10 13 14 13 12 10 9 8 7 7 9 9 9 10 11 12 15 15
8 11 10 8 9 10 10 11 12 13 11 10 8 7 6 8 9 9 8 8 12 13 13 14 12 11 9 8 6 7 8 9 8 9 9 10 11 12
9 9 10 10 8 8 10 11 10 8 8 10 11 8 4 8 7 5 5 9 6 11 12 12 11 10 8 7 7 7 8 8 8 8 9 10 11 10
9 9 9 7 9 9 8 7 8 7 6 9 4 9 7 4 1 6 6 5 8 6 10 10 9 8 6 4 4 5 7 8 8 7 8 10 10 10
7 7 7 7 6 5 5 5 6 7 8 5 6 3 5 3 3 3 6 9 6 3 6 6 7 7 6 5 6 4 5 7 7 8 9 10 9 10
4 3 1 3 5 7 7 8 8 7 9 10 6 5 4 5 5 7 7 7 7 7 5 1 6 7 6 6 7 6 7 7 8 8 7 8 7 9
5 3 2 5 7 7 8 9 10 10 9 9 8 4 4 5 6 6 8 7 8 7 7 6 6 6 7 10 7 7 7 8 8 8 7 8 8 9
5 4 4 5 7 9 10 13 11 12 13 10 9 8 10 8 7 6 9 7 7 8 7 7 5 6 5 5 2 4 7 8 8 8 7 8 8 8
7 6 5 4 6 9 9 12 12 16 18 13 14 11 13 10 9 9 12 9 6 5 8 7 5 5 5 4 6 7 7 8 8 7 7 7 8 8
10 9 7 8 9 9 11 12 13 13 12 10 12 14 13 13 11 12 11 8 1 4 5 6 4 4 4 4 6 6 7 7 8 8 8 8 8 8
11 11 10 10 11 9 11 13 15 12 9 11 13 15 11 13 9 6 6 7 7 5 5 4 4 4 3 3 3 5 6 6 7 6 7 7 7 6
12 12 11 14 10 10 11 13 13 10 12 13 8 8 8 10 9 11 7 10 5 3 5 5 4 3 3 1 2 3 3 5 4 4 4 5 5 5
10 10 10 13 15 14 12 10 13 12 14 13 11 7 4 6 7 6 6 8 6 3 6 6 3 3 3 1 1 1 3 3 3 3 4 5 7 6
11 10 11 11 13 13 9 12 12 12 11 10 8 5 5 4 6 6 6 4 0 1 10 6 2 4 3 3 2 1 2 2 3 3 2 3 2 4
11 12 10 8 6 8 16 16 13 9 8 8 6 5 4 5 7 6 6 5 5 5 4 5 2 4 3 2 3 2 2 1 3 3 2 1 0 0
12 11 10 8 9 12 10 9 10 8 7 5 5 5 6 6 6 5 6 6 6 4 3 5 6 4 1 2 2 3 1 2 3 2 2 1 1 1
14 12 10 9 10 9 8 8 8 6 5 4 5 5 6 7 6 6 6 7 6 7 6 5 5 5 6 5 1 1 2 2 2 2 1 2 1 6
12 12 12 11 12 9 9 7 7 7 5 5 6 6 5 7 7 6 7 6 4 5 6 6 5 4 3 5 12 2 1 1 3 3 2 2 10 8
12 13 13 12 11 9 9 7 7 6 5 6 7 8 8 8 9 8 6 5 5 5 6 6 6 4 5 5 4 18 4 1 2 4 4 6 9 8
11 14 14 12 11 10 9 7 7 6 6 6 7 8 9 10 9 7 6 5 6 3 5 3 4 5 2 4 6 6 22 6 6 5 5 9 8 14
11 13 12 12 10 9 9 7 8 8 7 7 6 8 9 9 9 7 5 3 8 4 6 6 3 4 7 7 8 6 10 21 16 7 4 4 6 4
9 12 11 11 10 10 8 7 9 9 8 7 9 9 9 9 9 9 9 7 6 5 8 5 3 1 3 7 10 9 8 7 13 21 22 14 3 3
7 8 10 10 10 9 7 9 10 9 9 11 11 10 10 9 9 9 8 8 6 7 8 7 6 7 9 9 9 7 12 7 3 7 12 13 13 13
Wind_Direction
212 209 209 215 197 211 227 240 252 266 264 264 254 214 213 192 219 235 249 243 194 214 228 228 206 200 202 203 220 230 244 239 234 230 232 233 233 233
236 233 224 224 216 224 233 233 238 252 269 272 266 252 232 246 229 240 254 257 211 208 216 214 192 194 198 206 220 228 243 242 232 231 234 234 231 230
206 220 223 222 226 227 231 230 237 229 259 278 272 264 253 247 252 262 260 252 260 201 218 205 186 190 194 204 222 230 243 245 234 230 233 233 226 226
198 203 215 214 223 219 229 248 248 242 233 260 277 274 259 243 304 285 268 276 256 203 199 182 182 188 187 207 240 244 254 255 248 238 238 235 228 222
201 211 225 233 253 276 280 279 262 259 239 240 257 270 286 313 324 324 276 254 245 174 181 171 163 179 189 210 239 243 255 259 250 242 243 247 228 216
183 195 263 284 281 282 277 276 278 277 271 252 233 245 249 277 263 262 242 225 217 207 190 86 172 170 200 215 233 248 250 250 243 239 235 237 232 225
187 212 273 327 312 283 282 272 274 268 261 263 238 249 260 256 246 262 250 234 214 211 208 196 206 207 192 214 247 221 244 243 240 233 231 231 220 218
224 229 263 266 277 267 256 254 259 266 263 266 253 235 258 264 253 248 246 215 218 195 214 218 203 221 226 226 120 238 221 227 228 218 221 224 219 219
227 242 264 283 288 299 289 254 243 229 237 254 261 251 243 231 234 232 233 226 222 152 204 225 173 225 231 216 193 217 220 218 219 209 219 223 222 221
226 234 250 271 282 287 301 289 278 269 261 236 232 254 262 248 222 237 234 225 193 191 201 241 132 223 205 227 153 207 219 228 216 207 216 223 227 229
227 233 239 255 269 257 284 290 283 281 276 255 262 266 263 241 211 181 196 198 214 195 199 247 135 254 238 257 237 186 221 226 240 237 234 229 229 236
229 235 220 247 261 262 271 286 286 283 289 301 281 260 239 236 209 204 199 216 203 177 182 220 183 214 246 117 196 174 193 206 227 242 250 246 222 239
235 230 238 212 235 248 245 269 267 289 295 294 286 248 205 181 191 202 216 245 203 210 143 183 193 185 225 97 68 175 220 171 221 197 192 211 202 233
241 240 242 215 225 242 250 244 254 280 273 268 241 208 197 181 173 175 186 207 167 38 156 204 171 199 184 158 173 171 212 255 230 204 181 124 177 236
240 236 236 218 244 268 249 247 256 261 267 235 210 200 161 146 142 151 140 144 142 118 130 181 203 139 169 186 147 186 179 176 211 192 189 213 236 342
231 234 240 259 275 278 290 267 258 256 247 217 199 151 143 140 140 136 137 158 149 113 82 171 140 139 107 313 270 175 138 101 81 61 10 74 107 2
210 226 233 239 248 252 258 258 254 247 203 163 156 158 136 132 139 148 163 168 156 156 143 146 146 112 58 11 30 31 59 66 38 101 107 68 34 35
206 218 229 239 245 252 255 257 242 217 190 171 159 152 156 143 152 161 166 162 151 165 151 133 136 135 140 79 26 34 145 210 138 121 137 119 89 59
222 218 231 235 240 242 247 237 230 194 173 164 174 161 160 152 161 167 165 152 171 148 121 133 159 201 193 133 147 43 359 286 136 104 84 72 89 62
231 233 236 232 235 234 236 227 206 160 170 163 166 161 166 160 160 155 161 161 134 118 144 140 183 193 236 106 101 45 17 31 25 61 65 80 93 131
214 231 231 233 224 229 229 203 185 170 174 162 171 165 157 159 150 147 147 180 140 184 172 139 84 326 97 94 101 75 47 40 45 40 360 97 120 81
220 209 222 226 230 229 224 181 175 165 172 167 171 157 157 153 154 155 166 151 175 147 102 96 115 116 144 109 116 116 103 68 53 54 53 44 8 72
221 233 221 226 231 226 181 163 164 166 172 171 159 152 151 151 150 157 153 161 132 127 125 106 83 54 65 89 97 102 110 113 100 83 72 55 62 71